Lanai City, HI

8:53 PM HST on March 26, 2017 (GMT -1000)
Lanai City

Weather History for PHNY - May, 2012

Change the Weather History Date:

Thursday, May 17, 2012

  Actual Average Record
Temperature  
Mean Temperature 72 °F -  
Max Temperature 80 °F 78 °F 84 °F (2000)
Min Temperature 63 °F 62 °F 56 °F (2006)
Cooling Degree Days 6    
Growing Degree Days 22 (Base 50)    
Moisture  
Dew Point 61 °F    
Average Humidity 76    
Maximum Humidity 90    
Minimum Humidity 54    
Precipitation  
Precipitation 0.00 in - - ()
Sea Level Pressure  
Sea Level Pressure 30.09 in    
Wind  
Wind Speed 7 mph (NE)    
Max Wind Speed 21 mph    
Max Gust Speed -    
Visibility 10 miles    
Events Rain    
Averages and records for this station are not official NWS values.
T = Trace of Precipitation, MM = Missing Value Source: NWS Daily Summary

Daily Weather History Graph

Daily Weather History Graph

Search for Another Location

Airport or City:

Trip Planner

Search our weather history database for the weather conditions in past years. The results will help you decide how hot, cold, wet, or windy it might be!

Date:

Astronomy

May. 17, 2012 Rise Set
Actual Time 5:49 AM HST 6:59 PM HST
Civil Twilight 5:25 AM HST 7:23 PM HST
Nautical Twilight 4:57 AM HST 7:51 PM HST
Astronomical Twilight 4:28 AM HST 8:20 PM HST
Moon 3:35 AM HST (5/17) 4:35 PM HST (5/17)
Length of Visible Light 13h 57m
Length of Day
13h 09m
Waning Crescent, 8% of the Moon is Illuminated
May 17
Waning Crescent
May 20
New
May 28
First Quarter
Jun 4
Full
Jun 11
Last Quarter

Hourly Weather History & Observations

Time (HST) Temp. Heat Index Dew Point Humidity Pressure Visibility Wind Dir Wind Speed Gust Speed Precip Events Conditions
12:22 AM 66.2 °F - 60.8 °F 83% 30.13 in 10.0 mi North 5.8 mph - N/A   Scattered Clouds
12:34 AM 66.2 °F - 60.8 °F 83% 30.13 in 10.0 mi NNE 3.5 mph - N/A   Mostly Cloudy
12:41 AM 66.2 °F - 60.8 °F 83% 30.13 in 10.0 mi NE 5.8 mph - N/A   Partly Cloudy
12:56 AM 66.9 °F - 61.0 °F 81% 30.07 in 10.0 mi Calm Calm - N/A   Partly Cloudy
1:56 AM 66.2 °F - 60.8 °F 83% 30.11 in 10.0 mi Calm Calm - N/A   Clear
2:56 AM 63.0 °F - 59.9 °F 90% 30.08 in 10.0 mi North 5.8 mph - N/A   Partly Cloudy
3:37 AM 64.4 °F - 60.8 °F 88% 30.12 in 10.0 mi NNE 9.2 mph - N/A   Mostly Cloudy
3:56 AM 64.9 °F - 59.9 °F 84% 30.07 in 10.0 mi NNE 10.4 mph - N/A   Partly Cloudy
4:56 AM 63.0 °F - 57.9 °F 84% 30.07 in 10.0 mi ENE 6.9 mph - N/A   Clear
5:56 AM 63.0 °F - 59.9 °F 90% 30.08 in 10.0 mi NNE 5.8 mph - N/A   Clear
6:56 AM 68.0 °F - 61.9 °F 81% 30.09 in 10.0 mi NE 10.4 mph - N/A   Clear
7:56 AM 72.0 °F - 59.9 °F 66% 30.10 in 10.0 mi East 6.9 mph - N/A   Clear
8:56 AM 73.9 °F - 57.9 °F 57% 30.10 in 10.0 mi NE 4.6 mph - N/A   Overcast
9:56 AM 77.9 °F - 59.9 °F 54% 30.10 in 10.0 mi North 4.6 mph - N/A   Mostly Cloudy
10:56 AM 80.6 °F 81.8 °F 62.6 °F 54% 30.15 in 10.0 mi North 11.5 mph - N/A   Mostly Cloudy
11:56 AM 79.0 °F - 61.9 °F 56% 30.08 in 10.0 mi NE 12.7 mph - N/A   Scattered Clouds
12:56 PM 75.9 °F - 61.0 °F 60% 30.06 in 10.0 mi NNE 18.4 mph - N/A   Mostly Cloudy
1:56 PM 79.0 °F - 61.9 °F 56% 30.05 in 10.0 mi NE 20.7 mph - N/A   Mostly Cloudy
2:56 PM 79.9 °F - 63.0 °F 56% 30.04 in 10.0 mi NE 19.6 mph - N/A   Partly Cloudy
3:56 PM 79.0 °F - 64.9 °F 62% 30.03 in 10.0 mi NE 20.7 mph - 0.00 in Rain Light Rain
4:56 PM 72.9 °F - 63.9 °F 73% 30.05 in 10.0 mi NE 16.1 mph - 0.00 in   Scattered Clouds
5:56 PM 72.9 °F - 63.9 °F 73% 30.06 in 10.0 mi NE 13.8 mph - 0.00 in   Mostly Cloudy
6:56 PM 68.9 °F - 63.9 °F 84% 30.07 in 10.0 mi NE 9.2 mph - N/A   Clear
7:56 PM 68.9 °F - 63.9 °F 84% 30.09 in 10.0 mi ENE 10.4 mph - N/A   Clear
8:56 PM 65.8 °F - 61.9 °F 87% 30.12 in 10.0 mi East 4.6 mph - N/A   Clear
9:56 PM 66.9 °F - 61.9 °F 84% 30.12 in 10.0 mi NE 3.5 mph - N/A   Scattered Clouds
10:56 PM 65.8 °F - 61.9 °F 87% 30.12 in 10.0 mi NNW 3.5 mph - N/A   Partly Cloudy
11:48 PM 66.2 °F - 62.6 °F 88% 30.18 in 10.0 mi NNE 5.8 mph - N/A   Mostly Cloudy
11:56 PM 65.8 °F - 61.9 °F 87% 30.12 in 10.0 mi NE 5.8 mph - N/A   Scattered Clouds